Showing default

QIANFAN-166, 69383

Orbit data source: Space-Track

QIANFAN-166, 69383 is a Chinese payload satellite in LEO that was launched on Thu, 04 Jun 2026 UTC via a CHANG ZHENG 6A launch vehicle from the Taiyaun Space Center, China (TSC). Payload-class satellites include a variety of spacecraft equipped with specific instruments for various scientific and technological missions. These include communications satellites like Starlink; space stations such as the ISS; scientific satellites like the Hubble; Earth observation satellites from companies like Planet Labs, Umbra, and HawkEye 360; GPS; miniature CubeSats for education and research; and military/defense satellites.

Loading next visibility...
Identifier
69383, 2026-124B
Orbit
LEO
Country
Flag of CNCN / PRC
Related business
Manufacturer
GESIH
Mission
Operational spacecraft
Bus & Motor
QIANFAN, Unknown motor
Mass
267 kg wet, ~267 kg dry
Launch date (UTC)
2026-06-04 (2 weeks ago)
Launch vehicle
CHANG ZHENG 6A
Launch site
Taiyaun Space Center, China (TSC)
Object type
Payload
Rocket body
Debris
Shape & HBR
Unknown
Radar Cross Section
Large (>1 m²)

Expand to show TLE details & history
Last TLE update: 10 hours ago

TLE from 10 hours ago
0 QIANFAN-166
1 69383U 26124B   26171.43002942  .00000092  00000-0  38436-4 0  9994
2 69383  88.9985   1.6718 0002756 105.8734 254.2758 14.17059923  2274
Epoch: 2026-06-20T10:19Z
TLE epoch observation values (Epoch: 2026-06-20T10:19:14.541Z)
Latitude
-0.00008°
Longitude
-61.78356°
Altitude
838.901 km
Speed
7.433 km/s
True Right ascension
00h 06m 41s
True Declination
0° 00' 00"
Sunlit
Object was in daylight at epoch
Visualization orbit readout
Latitude
Unknown
Longitude
Unknown
Altitude
Unknown
Speed
Unknown
Apparent Right ascension
Unknown
Apparent Declination
Unknown
Sunlit
N/A
Visualization observer readout
Local Sidereal Time
07:16:21
Azimuth
Unknown
Elevation
Unknown
Doppler factor
Unknown
Orbital elements
Apogee altitude
834.256 km
Perigee altitude
830.281 km
Semi-major axis
7,210.406 km
Eccentricity
0.00028
Inclination
88.9985°
RAAN
1.6718°
Arg. of periapsis
105.8734°
True anomaly
254.2454°
Mean anomaly
254.2758°
Eccentric anomaly
254.2606°
Mean motion
3.5449 °/min
Orbital period
101.55 mins
BSTAR
0.000038436
Loading maneuver chart data...
Computing Atmospheric mass density...
Loading historical data...
Loading historical data...
Loading historical data...
Loading historical data...
Loading historical data...
Loading historical data...
Loading historical data...

Documentation

Showing up to 5 results
|